[[{"header":{"parameterUnit":"m.s-1","parameterCategory":1,"la1":30.2991,"la2":30.254,"lo1":-89.0895,"lo2":-89.0444,"dy":0.0017,"dx":0.0017,"nx":28,"ny":28,"refTime":"2024-10-22T03:00:00:Z","depth":0,"parameterNumber":2,"parameterNumberName":"U-component_of_WINDS"},"data":[0,0,0,0,0,0,0,0,0,0,0,0,0,0,0,0,0,0,0,0,0,0,0,0,0,0,0,0,0,0,0,0,0,0,0,0,0,0,0,0,0,0,0,0,0,0,0,0,0,0,0,0,0,0,0,0,0,0,-0.5075,-0.5075,0,-0.5123,-0.5124,-0.5124,-0.5106,-0.5105,-0.5104,-0.5103,-0.5155,-0.5158,-0.516,0,0,0,0,0,0,0,0,0,0,0,0,0,-0.497,-0.4972,-0.5075,-0.5076,-0.5076,-0.5123,-0.5124,-0.5124,-0.5106,-0.5105,-0.5104,-0.5103,-0.5155,-0.5157,-0.516,0,0,0,0,0,0,0,0,0,0,0,0,0,-0.5016,-0.4972,-0.5075,-0.5073,-0.5073,-0.5123,-0.5124,-0.5125,-0.5107,-0.5105,-0.5103,-0.5102,-0.5154,-0.5157,-0.5161,-0.5217,0,0,-0.5172,-0.5173,0,0,0,0,0,0,0,0,-0.5014,-0.502,-0.5072,-0.5073,-0.5073,-0.5107,-0.5106,-0.5156,-0.5107,-0.5094,-0.5103,-0.5101,-0.5141,-0.5145,-0.5158,-0.5219,-0.5221,-0.5172,-0.5174,-0.5176,-0.5177,0,0,0,0,0,0,0,-0.5011,-0.5018,-0.5094,-0.5073,-0.5074,-0.507,-0.5075,-0.5115,-0.5126,-0.5095,-0.5094,-0.51,-0.5141,-0.5155,-0.5159,-0.5222,-0.5172,-0.5175,-0.5178,-0.5179,-0.5331,-0.5333,0,0,0,0,0,0,-0.5007,-0.5016,-0.5093,-0.5096,-0.5039,-0.5073,-0.5079,-0.5098,-0.5126,-0.5128,-0.5101,-0.5099,-0.5149,-0.5155,-0.5161,-0.5229,-0.5176,-0.5179,-0.5181,-0.533,-0.5332,-0.5334,0,0,0,0,0,0,-0.5005,-0.5014,-0.5091,-0.5055,-0.5065,-0.5077,-0.5099,-0.51,-0.5114,-0.513,-0.5132,-0.5113,-0.5148,-0.5156,-0.5203,-0.523,-0.5181,-0.5184,-0.5327,-0.533,-0.5333,-0.5364,0,0,0,0,0,0,-0.5002,-0.5013,-0.5034,-0.5056,-0.5067,-0.5131,-0.51,-0.5102,-0.512,-0.5117,-0.5142,-0.5145,-0.5148,-0.5197,-0.5206,-0.5234,-0.5187,-0.5325,-0.5329,-0.5332,-0.5361,-0.5368,-0.5374,0,0,0,0,0,-0.4998,-0.5041,-0.5035,-0.5044,-0.5093,-0.5132,-0.5139,-0.514,-0.5122,-0.5143,-0.5154,-0.5144,-0.5225,-0.5202,-0.5212,-0.5242,-0.5323,-0.5328,-0.5332,-0.5358,-0.5366,-0.5373,0,0,0,0,0,0,-0.5024,-0.5044,-0.5038,-0.5089,-0.5109,-0.5129,-0.5156,-0.5149,-0.5176,-0.5172,-0.5174,-0.5179,-0.5228,-0.5239,-0.5213,-0.5297,-0.5272,-0.5278,-0.5288,-0.5296,-0.5303,-0.53,-0.519,0,0,0,0,0,-0.5035,-0.5065,-0.5081,-0.5125,-0.5136,-0.5144,-0.5162,-0.5161,-0.5182,-0.5191,-0.5205,-0.5226,-0.5257,-0.5277,-0.5306,-0.5362,-0.5368,-0.5387,-0.5393,-0.5399,-0.5405,-0.5436,-0.5445,-0.5348,-0.5348,-0.5348,0,0,-0.506,-0.5074,-0.5093,-0.5131,-0.5146,-0.5178,-0.5152,-0.5186,-0.521,-0.5196,-0.5241,-0.5252,-0.5277,-0.5328,-0.5352,-0.5339,-0.5432,-0.5404,-0.5408,-0.5411,-0.5441,-0.545,-0.5458,-0.535,-0.535,-0.535,0,0,-0.512,-0.5134,-0.5172,-0.5188,-0.5211,-0.5217,-0.5226,-0.5247,-0.5254,-0.5298,-0.5289,-0.5318,-0.537,-0.5388,-0.5404,-0.5471,-0.5463,-0.548,-0.5514,-0.5544,-0.5552,-0.5559,-0.5584,-0.5592,-0.5485,-0.5486,-0.5486,0,-0.5148,-0.5194,-0.5193,-0.5229,-0.5246,-0.5234,-0.5273,-0.5288,-0.532,-0.5333,-0.5318,-0.5384,-0.5399,-0.5455,-0.5471,-0.5484,-0.5496,-0.5478,-0.5551,-0.5557,-0.5564,-0.5588,-0.5597,-0.5488,-0.5487,-0.5487,-0.5487,0,-0.5228,-0.526,-0.5288,-0.5318,-0.5339,-0.5376,-0.5381,-0.5402,-0.5399,-0.5406,-0.5453,-0.547,-0.5503,-0.5516,-0.5514,-0.5572,-0.5564,-0.555,-0.5524,-0.5575,-0.5598,-0.5607,-0.549,-0.549,-0.5489,-0.5489,0,0,-0.5308,-0.5336,-0.5346,-0.536,-0.5384,-0.541,-0.5446,-0.5477,-0.5495,-0.5517,-0.5549,-0.5593,-0.558,-0.5598,-0.5598,-0.5625,-0.5677,-0.5608,-0.5608,-0.5621,-0.5743,-0.5754,-0.5765,-0.5672,-0.5673,-0.5675,-0.5742,0,-0.5371,-0.5435,-0.5434,-0.5494,-0.5524,-0.5512,-0.5544,-0.5563,-0.5571,-0.5598,-0.5607,-0.5638,-0.5619,-0.563,-0.5655,-0.5666,-0.5702,-0.5661,-0.5702,-0.5704,-0.5698,-0.5776,-0.5788,-0.585,-0.575,-0.5752,-0.5753,0,-0.5454,-0.5478,-0.554,-0.5559,-0.5572,-0.5601,-0.5629,-0.5655,-0.5676,-0.568,-0.57,-0.5696,-0.5734,-0.5706,-0.5759,-0.5731,-0.5748,-0.5756,-0.5758,-0.5763,-0.5732,-0.5785,-0.587,-0.588,-0.5766,-0.5765,-0.5764,0,-0.5507,-0.5555,-0.5598,-0.561,-0.5634,-0.5654,-0.5665,-0.5685,-0.5703,-0.5728,-0.574,-0.577,-0.5786,-0.5809,-0.5813,-0.5792,-0.5867,-0.584,-0.5872,-0.5872,-0.589,-0.5889,-0.5981,-0.5899,-0.5899,-0.5898,-0.5898,0,-0.5579,-0.5617,-0.5622,-0.5649,-0.5692,-0.5691,-0.5734,-0.5744,-0.5761,-0.579,-0.5782,-0.581,-0.5813,-0.5841,-0.5845,-0.5889,-0.5896,-0.5901,-0.5902,-0.5903,-0.5902,-0.5915,-0.5911,-0.5901,-0.59,-0.59,-0.5899,0,-0.5646,-0.565,-0.5697,-0.5715,-0.5721,-0.5752,-0.5768,-0.5794,-0.58,-0.5837,-0.5846,-0.5856,-0.5889,-0.5895,-0.5935,-0.5937,-0.599,-0.5986,-0.5983,-0.5983,-0.6016,-0.6013,-0.612,-0.6134,-0.6042,-0.6043,-0.6043,0,-0.5692,-0.5721,-0.5742,-0.5761,-0.5773,-0.5802,-0.5821,-0.5822,-0.5841,-0.5868,-0.5891,-0.5923,-0.5949,-0.6003,-0.6015,-0.6045,-0.6042,-0.6077,-0.6047,-0.6047,-0.6044,-0.6043,-0.6046,-0.6084,-0.6085,-0.6086,-0.6086,0,-0.5774,-0.5774,-0.5801,-0.5828,-0.585,-0.5872,-0.5893,-0.5909,-0.5912,-0.5935,-0.5968,-0.5988,-0.6028,-0.6061,-0.6091,-0.6103,-0.6096,-0.6095,-0.6105,-0.6107,-0.6104,-0.6107,-0.6,-0.6093,-0.6093,-0.6092,-0.6092,-0.6092,-0.5832,-0.5858,-0.5877,-0.5907,-0.5922,-0.5942,-0.5967,-0.5976,-0.6003,-0.6035,-0.6034,-0.6071,-0.6092,-0.6131,-0.6145,-0.6175,-0.6164,-0.6177,-0.6181,-0.6185,-0.6188,-0.6098,-0.618,-0.618,-0.618,-0.618,-0.618,0,-0.5915,-0.5926,-0.5953,-0.5982,-0.6006,-0.5995,-0.6017,-0.6038,-0.6071,-0.609,-0.6115,-0.6154,-0.6185,-0.6199,-0.623,-0.6251,-0.6249,-0.626,-0.6259,-0.6262,-0.6196,-0.6185,-0.6261,-0.6261,-0.6261,-0.6261,-0.6261,-0.6261,-0.596,-0.6003,-0.6006,-0.6057,-0.6068,-0.6103,-0.6117,-0.6135,-0.6151,-0.6194,-0.622,-0.6228,-0.6245,-0.6277,-0.6306,-0.6309,-0.6322,-0.6334,-0.6336,-0.6275,-0.6266,-0.6259,-0.6249,-0.6337,-0.6337,-0.64,-0.64,-0.6401]},{"header":{"parameterUnit":"m.s-1","parameterCategory":1,"la1":30.2991,"la2":30.254,"lo1":-89.0895,"lo2":-89.0444,"dy":0.0017,"dx":0.0017,"nx":28,"ny":28,"refTime":"2024-10-22T03:00:00:Z","depth":0,"parameterNumber":3,"parameterNumberName":"V-component_of_WINDS"},"data":[0,0,0,0,0,0,0,0,0,0,0,0,0,0,0,0,0,0,0,0,0,0,0,0,0,0,0,0,0,0,0,0,0,0,0,0,0,0,0,0,0,0,0,0,0,0,0,0,0,0,0,0,0,0,0,0,0,0,-1.4273,-1.4273,0,-1.4305,-1.4305,-1.4306,-1.4299,-1.4298,-1.4298,-1.4297,-1.4331,-1.4333,-1.4334,0,0,0,0,0,0,0,0,0,0,0,0,0,-1.4207,-1.4208,-1.4273,-1.4273,-1.4273,-1.4305,-1.4305,-1.4306,-1.4299,-1.4298,-1.4298,-1.4297,-1.4331,-1.4332,-1.4334,0,0,0,0,0,0,0,0,0,0,0,0,0,-1.4237,-1.4209,-1.4273,-1.4274,-1.4274,-1.4305,-1.4305,-1.4306,-1.4299,-1.4298,-1.4298,-1.4297,-1.433,-1.4332,-1.4334,-1.4366,0,0,-1.4341,-1.4342,0,0,0,0,0,0,0,0,-1.4235,-1.4239,-1.4273,-1.4274,-1.4274,-1.4297,-1.4294,-1.4326,-1.43,-1.429,-1.4297,-1.4296,-1.4321,-1.4323,-1.4331,-1.4367,-1.4369,-1.4341,-1.4343,-1.4344,-1.4344,0,0,0,0,0,0,0,-1.4233,-1.4238,-1.4285,-1.4274,-1.4275,-1.4273,-1.4277,-1.43,-1.431,-1.4291,-1.429,-1.4294,-1.4321,-1.4329,-1.4332,-1.4369,-1.4341,-1.4343,-1.4344,-1.4345,-1.4433,-1.4434,0,0,0,0,0,0,-1.423,-1.4236,-1.4284,-1.4286,-1.4252,-1.4275,-1.4279,-1.4291,-1.431,-1.4312,-1.4295,-1.4294,-1.4326,-1.433,-1.4333,-1.4372,-1.4343,-1.4346,-1.4347,-1.4432,-1.4433,-1.4434,0,0,0,0,0,0,-1.4229,-1.4235,-1.4283,-1.4261,-1.4267,-1.4277,-1.4291,-1.4292,-1.43,-1.4313,-1.4314,-1.4302,-1.4326,-1.433,-1.4358,-1.4373,-1.4347,-1.4349,-1.4431,-1.4432,-1.4434,-1.4448,0,0,0,0,0,0,-1.4227,-1.4234,-1.4246,-1.4262,-1.4268,-1.4307,-1.4291,-1.4293,-1.4304,-1.4303,-1.432,-1.4322,-1.4325,-1.4355,-1.436,-1.4375,-1.435,-1.4429,-1.4431,-1.4433,-1.4447,-1.445,-1.4453,0,0,0,0,0,-1.4225,-1.4249,-1.4247,-1.4252,-1.4283,-1.4307,-1.4311,-1.4315,-1.4305,-1.4317,-1.4325,-1.4321,-1.437,-1.4357,-1.4363,-1.438,-1.4428,-1.4431,-1.4433,-1.4445,-1.4449,-1.4453,0,0,0,0,0,0,-1.4235,-1.4251,-1.4249,-1.4278,-1.4291,-1.4306,-1.4321,-1.4319,-1.4336,-1.4334,-1.4337,-1.4341,-1.4369,-1.4377,-1.4363,-1.4411,-1.4398,-1.4402,-1.4405,-1.4409,-1.4413,-1.441,-1.4352,0,0,0,0,0,-1.4241,-1.4259,-1.4272,-1.4297,-1.4303,-1.4311,-1.4322,-1.4323,-1.4337,-1.4343,-1.4353,-1.4367,-1.4386,-1.4398,-1.4416,-1.4448,-1.4452,-1.4462,-1.4465,-1.4468,-1.4471,-1.4489,-1.4494,-1.4442,-1.4442,-1.4442,0,0,-1.4252,-1.4263,-1.4275,-1.4299,-1.4309,-1.4328,-1.4316,-1.4336,-1.4351,-1.4346,-1.4373,-1.4381,-1.4397,-1.4427,-1.444,-1.4434,-1.4486,-1.4471,-1.4473,-1.4475,-1.4492,-1.4497,-1.4502,-1.4443,-1.4443,-1.4443,0,0,-1.4284,-1.4294,-1.4316,-1.4327,-1.4343,-1.4348,-1.4353,-1.4368,-1.4373,-1.44,-1.4397,-1.4414,-1.4446,-1.4458,-1.4468,-1.4505,-1.4502,-1.4511,-1.4528,-1.4546,-1.455,-1.4554,-1.4568,-1.4572,-1.4514,-1.4514,-1.4514,0,-1.4297,-1.4325,-1.4328,-1.4349,-1.436,-1.4356,-1.4379,-1.4389,-1.4411,-1.4419,-1.4411,-1.4451,-1.4462,-1.4495,-1.4504,-1.4512,-1.4519,-1.4509,-1.4549,-1.4553,-1.4556,-1.457,-1.4575,-1.4515,-1.4514,-1.4514,-1.4514,0,-1.434,-1.436,-1.4376,-1.4396,-1.4409,-1.4431,-1.4438,-1.445,-1.4451,-1.4457,-1.4485,-1.4497,-1.4518,-1.4525,-1.4526,-1.4559,-1.4555,-1.4548,-1.4535,-1.4562,-1.4575,-1.458,-1.4516,-1.4516,-1.4515,-1.4515,0,0,-1.4379,-1.4401,-1.4407,-1.4416,-1.4434,-1.4449,-1.4471,-1.4491,-1.4502,-1.4517,-1.4536,-1.4563,-1.4558,-1.4569,-1.4571,-1.4587,-1.4616,-1.4578,-1.4579,-1.4586,-1.4654,-1.4659,-1.4665,-1.4614,-1.4615,-1.4616,-1.4653,0,-1.4413,-1.4451,-1.4454,-1.4489,-1.4508,-1.4505,-1.4524,-1.4537,-1.4544,-1.4561,-1.4568,-1.4588,-1.4578,-1.4585,-1.46,-1.4609,-1.463,-1.4606,-1.4632,-1.4633,-1.4629,-1.4671,-1.4676,-1.4711,-1.4657,-1.4658,-1.4659,0,-1.4457,-1.4473,-1.451,-1.4525,-1.4533,-1.455,-1.4569,-1.4585,-1.4601,-1.4604,-1.4617,-1.4617,-1.4641,-1.4626,-1.4659,-1.4643,-1.4654,-1.466,-1.4661,-1.4664,-1.4648,-1.4676,-1.4722,-1.4727,-1.4666,-1.4666,-1.4665,0,-1.4482,-1.4513,-1.4539,-1.4547,-1.4566,-1.4578,-1.4587,-1.4601,-1.4613,-1.4629,-1.4637,-1.4657,-1.4667,-1.4682,-1.4688,-1.4677,-1.4721,-1.4706,-1.4725,-1.4725,-1.4735,-1.4734,-1.4784,-1.4741,-1.474,-1.474,-1.474,0,-1.452,-1.4543,-1.4551,-1.4567,-1.4593,-1.4596,-1.4622,-1.4629,-1.4642,-1.466,-1.4659,-1.4676,-1.4682,-1.47,-1.4704,-1.4731,-1.4736,-1.474,-1.4741,-1.4741,-1.474,-1.4748,-1.4746,-1.4742,-1.4741,-1.4741,-1.4741,0,-1.4553,-1.4559,-1.4588,-1.4603,-1.4607,-1.4626,-1.4639,-1.4655,-1.4661,-1.4684,-1.4689,-1.4699,-1.4721,-1.4728,-1.4754,-1.4757,-1.4788,-1.4787,-1.4783,-1.4783,-1.4802,-1.48,-1.4859,-1.4867,-1.4818,-1.4818,-1.4819,0,-1.4577,-1.4594,-1.4611,-1.4623,-1.4632,-1.4651,-1.4663,-1.4668,-1.4681,-1.47,-1.4713,-1.4734,-1.4752,-1.4786,-1.4796,-1.4816,-1.4816,-1.4835,-1.4819,-1.4818,-1.4817,-1.4816,-1.4818,-1.4838,-1.4838,-1.4839,-1.4839,0,-1.4619,-1.4621,-1.4638,-1.4657,-1.4672,-1.4687,-1.4702,-1.4712,-1.4718,-1.4733,-1.4755,-1.4768,-1.4795,-1.4816,-1.4837,-1.4846,-1.4844,-1.4844,-1.485,-1.485,-1.4847,-1.4849,-1.4792,-1.4843,-1.4843,-1.4842,-1.4842,-1.4842,-1.4648,-1.4664,-1.4678,-1.4698,-1.471,-1.4724,-1.4739,-1.4748,-1.4766,-1.4787,-1.4789,-1.4813,-1.4828,-1.4856,-1.4866,-1.4885,-1.488,-1.4887,-1.4889,-1.4891,-1.4893,-1.4843,-1.4889,-1.4889,-1.4888,-1.4888,-1.4888,0,-1.4691,-1.47,-1.4718,-1.4739,-1.4754,-1.4751,-1.4767,-1.4781,-1.4801,-1.4816,-1.4833,-1.4858,-1.4879,-1.4891,-1.4912,-1.4925,-1.4925,-1.493,-1.493,-1.4932,-1.4896,-1.489,-1.493,-1.493,-1.493,-1.493,-1.493,-1.493,-1.4715,-1.4741,-1.4745,-1.4778,-1.4787,-1.481,-1.482,-1.4833,-1.4844,-1.4873,-1.489,-1.4897,-1.4911,-1.4933,-1.4952,-1.4955,-1.4963,-1.4969,-1.4972,-1.4939,-1.4934,-1.493,-1.4924,-1.4971,-1.4971,-1.5006,-1.5006,-1.5006]}]]